WetterOnline ( https://www.wetteronline.de )

Wetter aktuell Garmisch-Partenkirchen

Aktuelles Wetter: Garmisch-Partenkirchen (719m)

6-stündlich | Neueste Meldungen
Ortszeit Temperatur Wetter
Fr, 05.03. 1:00 5.2° C leichter Regen
Do, 04.03. 19:00 8.1° C bewölkt
Do, 04.03. 13:00 12.7° C bewölkt
Do, 04.03. 7:00 0.3° C bedeckt
Do, 04.03. 1:00 0.5° C bedeckt
Mi, 03.03. 19:00 5.1° C bedeckt
Mi, 03.03. 13:00 13.1° C wolkig
Mi, 03.03. 7:00 -2.0° C bedeckt
Ortszeit Temperatur Wetter
Fr, 05.03. 6:00 3.2° C Sprühregen
Fr, 05.03. 5:50 3.2° C Sprühregen
Fr, 05.03. 5:40 3.3° C Sprühregen
Fr, 05.03. 5:30 3.2° C Sprühregen
Fr, 05.03. 5:20 3.2° C Sprühregen
Fr, 05.03. 5:10 3.2° C Sprühregen
Fr, 05.03. 5:00 3.4° C Regen
Fr, 05.03. 4:30 3.5° C Sprühregen
Fr, 05.03. 4:00 3.7° C Sprühregen
Fr, 05.03. 3:30 3.6° C Sprühregen
Fr, 05.03. 3:00 3.9° C leichter Regen
Ortszeit Relative Feuchte Sichtweite
Fr, 05.03. 1:00 83% 10 km
Do, 04.03. 19:00 60% 35 km
Do, 04.03. 13:00 26% 55 km
Do, 04.03. 7:00 84% 60 km
Do, 04.03. 1:00 82% 55 km
Mi, 03.03. 19:00 68% 45 km
Mi, 03.03. 13:00 27% 55 km
Mi, 03.03. 7:00 85% >70 km
Ortszeit Relative Feuchte Sichtweite
Fr, 05.03. 6:00 96% 12 km
Fr, 05.03. 5:50 96% -
Fr, 05.03. 5:40 96% -
Fr, 05.03. 5:30 97% 30 km
Fr, 05.03. 5:20 97% -
Fr, 05.03. 5:10 97% -
Fr, 05.03. 5:00 97% 5.0 km
Fr, 05.03. 4:30 94% 25 km
Fr, 05.03. 4:00 93% 35 km
Fr, 05.03. 3:30 94% 24 km
Fr, 05.03. 3:00 90% 28 km
Ortszeit Niederschlagsmenge Niederschlagsart
Fr, 05.03. 1:00 0.2 l/m2 in 6 Std. Regen
Do, 04.03. 19:00 0.1 l/m2 in 12 Std. Regen
Do, 04.03. 13:00 0.0 l/m2 in 6 Std. -
Do, 04.03. 7:00 0.0 l/m2 in 12 Std. -
Do, 04.03. 1:00 0.0 l/m2 in 6 Std. -
Mi, 03.03. 19:00 0.0 l/m2 in 12 Std. -
Mi, 03.03. 13:00 0.0 l/m2 in 6 Std. -
Mi, 03.03. 7:00 0.0 l/m2 in 12 Std. -
Ortszeit Niederschlagsmenge Niederschlagsart
Fr, 05.03. 6:00 0.3 l/m2 in 1 Std. Regen
Fr, 05.03. 5:50 keine Meldung -
Fr, 05.03. 5:40 keine Meldung -
Fr, 05.03. 5:30 0.3 l/m2 in 1 Std. -
Fr, 05.03. 5:20 keine Meldung -
Fr, 05.03. 5:10 keine Meldung -
Fr, 05.03. 5:00 0.3 l/m2 in 1 Std. Regen
Fr, 05.03. 4:30 0.1 l/m2 in 1 Std. -
Fr, 05.03. 4:00 0.1 l/m2 in 1 Std. Regenschauer
Fr, 05.03. 3:30 0.1 l/m2 in 1 Std. -
Fr, 05.03. 3:00 1.6 l/m2 in 1 Std. Regenschauer
Ortszeit Stärke Spitze Richtung
km/h Bft. km/h Grad Sektor
Fr, 05.03. 1:00 4 1 18 250° W
Do, 04.03. 19:00 4 1 32 220° SW
Do, 04.03. 13:00 4 1 11 90° O
Do, 04.03. 7:00 2 1 9 250° W
Do, 04.03. 1:00 4 1 7 220° SW
Mi, 03.03. 19:00 4 1 14 230° SW
Mi, 03.03. 13:00 0 0 7 - -
Mi, 03.03. 7:00 4 1 7 220° SW
Ortszeit Stärke Spitze Richtung
km/h Bft. km/h Grad Sektor
Fr, 05.03. 6:00 4 1 11 260° W
Fr, 05.03. 5:50 4 1 - 260° W
Fr, 05.03. 5:40 4 1 - 360° N
Fr, 05.03. 5:30 4 1 7 120° SO
Fr, 05.03. 5:20 4 1 - 120° SO
Fr, 05.03. 5:10 4 1 - 30° NO
Fr, 05.03. 5:00 4 1 11 240° SW
Fr, 05.03. 4:30 4 1 11 100° O
Fr, 05.03. 4:00 4 1 7 90° O
Fr, 05.03. 3:30 0 0 7 - -
Fr, 05.03. 3:00 6 1 15 240° SW
Ortszeit Untergrenze Bedeckung Gattung
total tief tief mittel hoch
Fr, 05.03. 1:00 630 m 8/8 8/8 - - -
Do, 04.03. 19:00 1380 m 7/8 7/8 - - -
Do, 04.03. 13:00 2100 m 8/8 5/8 - - -
Do, 04.03. 7:00 3300 m 8/8 8/8 - - -
Do, 04.03. 1:00 6300 m 8/8 8/8 - - -
Mi, 03.03. 19:00 6300 m 8/8 8/8 - - -
Mi, 03.03. 13:00 7500 m 8/8 0/8 - - -
Mi, 03.03. 7:00 6600 m 8/8 8/8 - - -
Ortszeit Bedeckungsgrad in Achtel und Wolkenuntergrenze
Fr, 05.03. 6:00 1(420m) 7(1350m) 8(1500m)
Fr, 05.03. 5:50 1(420m) 7(1350m) 8(1500m)
Fr, 05.03. 5:40 1(450m) 6(1290m) 8(1470m)
Fr, 05.03. 5:30 2(420m) 7(1440m) 8(1800m)
Fr, 05.03. 5:20 2(420m) 7(1440m) 8(1800m)
Fr, 05.03. 5:10 2(420m) 6(1290m) 8(1500m)
Fr, 05.03. 5:00 3(510m) 7(930m) 8(1170m)
Fr, 05.03. 4:30 5(480m) 7(1230m) 8(1440m)
Fr, 05.03. 4:00 4(450m) 7(1230m) 8(1470m)
Fr, 05.03. 3:30 1(360m) 4(1050m) 8(1380m)
Fr, 05.03. 3:00 1(270m) 7(960m) 7(1500m)
Ortszeit Luftdruck NN (hPa) Tendenz (hPa in 3 Std.)
Fr, 05.03. 1:00 1018 + 1,1
Do, 04.03. 19:00 1017 0,0
Do, 04.03. 13:00 1018 - 2,9
Do, 04.03. 7:00 1026 - 1,0
Do, 04.03. 1:00 1029 - 1,2
Mi, 03.03. 19:00 1030 - 0,2
Mi, 03.03. 13:00 1029 - 1,3
Mi, 03.03. 7:00 1036 + 0,4
Ortszeit Luftdruck NN (hPa) Tendenz (hPa in 3 Std.)
Fr, 05.03. 6:00 1019 + 0,2
Fr, 05.03. 5:50 1019 keine Meldung
Fr, 05.03. 5:40 1019 keine Meldung
Fr, 05.03. 5:30 1019 + 0,3
Fr, 05.03. 5:20 1019 keine Meldung
Fr, 05.03. 5:10 1019 keine Meldung
Fr, 05.03. 5:00 1019 + 0,7
Fr, 05.03. 4:30 1019 + 0,4
Fr, 05.03. 4:00 1019 + 0,1
Fr, 05.03. 3:30 1019 + 0,2
Fr, 05.03. 3:00 1019 + 0,6
Ortszeit Schneehöhe (cm)
Fr, 05.03. 1:00 0
Do, 04.03. 19:00 0
Do, 04.03. 13:00 0
Do, 04.03. 7:00 0
Do, 04.03. 1:00 0
Mi, 03.03. 19:00 0
Mi, 03.03. 13:00 0
Mi, 03.03. 7:00 0
Ortszeit Schneehöhe (cm)
Fr, 05.03. 6:00 0
Fr, 05.03. 5:50 0
Fr, 05.03. 5:40 0
Fr, 05.03. 5:30 0
Fr, 05.03. 5:20 0
Fr, 05.03. 5:10 0
Fr, 05.03. 5:00 0
Fr, 05.03. 4:30 0
Fr, 05.03. 4:00 0
Fr, 05.03. 3:30 0
Fr, 05.03. 3:00 0
Link zu dieser Seite / Seite empfehlen

Das Wetter in ...